Time,TemperatureF,DewpointF,PressureIn,WindDirection,WindDirectionDegrees,WindSpeedMPH,WindSpeedGustMPH,Humidity,HourlyPrecipIn,Conditions,Clouds,dailyrainin,SolarRadiationWatts/m^2,SoftwareType,DateUTC
2013-09-20 00:05:00,70.9,39.6,29.67,WNW,287,0.0,0.0,32,0.00,,,0.00,0,Wunderground v.1.15,2013-09-20 07:05:00,
2013-09-20 00:10:00,71.3,39.9,29.67,WNW,287,0.0,0.0,32,0.00,,,0.00,0,Wunderground v.1.15,2013-09-20 07:10:00,
2013-09-20 00:16:00,71.4,40.0,29.66,WNW,287,0.0,0.0,32,0.00,,,0.00,0,Wunderground v.1.15,2013-09-20 07:16:00,
2013-09-20 00:22:00,70.8,40.3,29.66,WNW,287,0.0,0.0,33,0.00,,,0.00,0,Wunderground v.1.15,2013-09-20 07:22:00,
2013-09-20 00:28:00,70.5,40.0,29.66,WNW,287,0.0,0.0,33,0.00,,,0.00,0,Wunderground v.1.15,2013-09-20 07:28:00,
2013-09-20 00:34:00,71.1,39.7,29.66,WNW,287,0.0,0.0,32,0.00,,,0.00,0,Wunderground v.1.15,2013-09-20 07:34:00,
2013-09-20 00:39:00,71.5,40.1,29.66,WNW,287,0.0,0.0,32,0.00,,,0.00,0,Wunderground v.1.15,2013-09-20 07:39:00,
2013-09-20 00:45:00,71.7,40.3,29.66,WNW,287,0.0,0.0,32,0.00,,,0.00,0,Wunderground v.1.15,2013-09-20 07:45:00,
2013-09-20 00:51:00,72.1,39.8,29.66,WNW,287,0.0,0.0,31,0.00,,,0.00,0,Wunderground v.1.15,2013-09-20 07:51:00,
2013-09-20 00:57:00,72.1,39.8,29.66,WNW,287,0.0,1.0,31,0.00,,,0.00,0,Wunderground v.1.15,2013-09-20 07:57:00,
2013-09-20 01:02:00,71.7,40.3,29.66,WNW,287,0.0,0.0,32,0.00,,,0.00,0,Wunderground v.1.15,2013-09-20 08:02:00,
2013-09-20 01:08:00,71.5,40.1,29.66,WNW,287,0.0,0.0,32,0.00,,,0.00,0,Wunderground v.1.15,2013-09-20 08:08:00,
2013-09-20 01:14:00,71.9,39.6,29.66,WNW,287,0.0,0.0,31,0.00,,,0.00,0,Wunderground v.1.15,2013-09-20 08:14:00,
2013-09-20 01:20:00,72.1,40.6,29.66,WNW,287,0.0,0.0,32,0.00,,,0.00,0,Wunderground v.1.15,2013-09-20 08:20:00,
2013-09-20 01:26:00,72.1,40.6,29.65,WNW,287,0.0,0.0,32,0.00,,,0.00,0,Wunderground v.1.15,2013-09-20 08:26:00,
2013-09-20 01:31:00,71.6,41.0,29.66,WNW,287,0.0,0.0,33,0.00,,,0.00,0,Wunderground v.1.15,2013-09-20 08:31:00,
2013-09-20 01:37:00,71.0,40.4,29.65,WNW,287,1.0,1.0,33,0.00,,,0.00,0,Wunderground v.1.15,2013-09-20 08:37:00,
2013-09-20 01:42:00,71.4,40.8,29.65,WNW,287,0.0,1.0,33,0.00,,,0.00,0,Wunderground v.1.15,2013-09-20 08:42:00,
2013-09-20 01:48:00,71.6,41.0,29.65,WNW,287,0.0,1.0,33,0.00,,,0.00,0,Wunderground v.1.15,2013-09-20 08:48:00,
2013-09-20 01:54:00,71.5,40.9,29.65,SW,234,0.0,1.0,33,0.00,,,0.00,0,Wunderground v.1.15,2013-09-20 08:54:00,
2013-09-20 02:00:00,70.9,40.3,29.65,SW,224,0.0,0.0,33,0.00,,,0.00,0,Wunderground v.1.15,2013-09-20 09:00:00,
2013-09-20 02:05:00,70.4,40.7,29.65,SW,224,0.0,1.0,34,0.00,,,0.00,0,Wunderground v.1.15,2013-09-20 09:05:00,
2013-09-20 02:10:00,70.3,40.6,29.65,SW,224,0.0,0.0,34,0.00,,,0.00,0,Wunderground v.1.15,2013-09-20 09:10:00,
2013-09-20 02:15:00,70.5,40.8,29.65,SW,224,0.0,1.0,34,0.00,,,0.00,0,Wunderground v.1.15,2013-09-20 09:15:00,
2013-09-20 02:20:00,70.5,40.8,29.64,SW,224,0.0,0.0,34,0.00,,,0.00,0,Wunderground v.1.15,2013-09-20 09:20:00,
2013-09-20 02:25:00,70.6,40.1,29.64,SW,224,0.0,1.0,33,0.00,,,0.00,0,Wunderground v.1.15,2013-09-20 09:25:00,
2013-09-20 02:30:00,70.5,40.8,29.64,SW,224,0.0,0.0,34,0.00,,,0.00,0,Wunderground v.1.15,2013-09-20 09:30:00,
2013-09-20 02:35:00,70.5,40.0,29.64,SW,224,0.0,1.0,33,0.00,,,0.00,0,Wunderground v.1.15,2013-09-20 09:35:00,
2013-09-20 02:40:00,71.0,40.4,29.64,SW,224,0.0,1.0,33,0.00,,,0.00,0,Wunderground v.1.15,2013-09-20 09:40:00,
2013-09-20 02:45:00,71.6,40.2,29.64,SW,224,0.0,1.0,32,0.00,,,0.00,0,Wunderground v.1.15,2013-09-20 09:45:00,
2013-09-20 02:50:00,71.6,40.2,29.64,SW,224,0.0,0.0,32,0.00,,,0.00,0,Wunderground v.1.15,2013-09-20 09:50:00,
2013-09-20 02:55:00,71.4,40.0,29.64,SW,224,0.0,1.0,32,0.00,,,0.00,0,Wunderground v.1.15,2013-09-20 09:55:00,
2013-09-20 03:00:00,71.2,39.8,29.64,SW,224,0.0,0.0,32,0.00,,,0.00,0,Wunderground v.1.15,2013-09-20 10:00:00,
2013-09-20 03:05:00,71.3,39.9,29.64,SW,224,0.0,1.0,32,0.00,,,0.00,0,Wunderground v.1.15,2013-09-20 10:05:00,
2013-09-20 03:10:00,71.4,40.0,29.64,SW,224,0.0,0.0,32,0.00,,,0.00,0,Wunderground v.1.15,2013-09-20 10:10:00,
2013-09-20 03:15:00,71.2,39.8,29.64,SW,224,0.0,1.0,32,0.00,,,0.00,0,Wunderground v.1.15,2013-09-20 10:15:00,
2013-09-20 03:20:00,71.2,39.8,29.64,SW,224,0.0,1.0,32,0.00,,,0.00,0,Wunderground v.1.15,2013-09-20 10:20:00,
2013-09-20 03:25:00,71.2,40.6,29.64,SW,224,0.0,1.0,33,0.00,,,0.00,0,Wunderground v.1.15,2013-09-20 10:25:00,
2013-09-20 03:31:00,70.9,39.6,29.64,SW,224,0.0,0.0,32,0.00,,,0.00,0,Wunderground v.1.15,2013-09-20 10:31:00,
2013-09-20 03:36:00,70.9,39.6,29.64,SW,224,0.0,1.0,32,0.00,,,0.00,0,Wunderground v.1.15,2013-09-20 10:36:00,
2013-09-20 03:41:00,71.1,40.5,29.64,SW,224,0.0,0.0,33,0.00,,,0.00,0,Wunderground v.1.15,2013-09-20 10:41:00,
2013-09-20 03:46:00,71.4,40.0,29.64,SW,224,0.0,1.0,32,0.00,,,0.00,0,Wunderground v.1.15,2013-09-20 10:46:00,
2013-09-20 03:51:00,71.8,39.5,29.64,SW,224,0.0,1.0,31,0.00,,,0.00,0,Wunderground v.1.15,2013-09-20 10:51:00,
2013-09-20 03:56:00,72.2,39.9,29.64,SW,224,0.0,1.0,31,0.00,,,0.00,0,Wunderground v.1.15,2013-09-20 10:56:00,
2013-09-20 04:01:00,72.4,39.2,29.64,SW,224,0.0,0.0,30,0.00,,,0.00,0,Wunderground v.1.15,2013-09-20 11:01:00,
2013-09-20 04:06:00,72.4,39.2,29.64,SW,224,0.0,0.0,30,0.00,,,0.00,0,Wunderground v.1.15,2013-09-20 11:06:00,
2013-09-20 04:11:00,72.3,40.0,29.65,SW,224,0.0,0.0,31,0.00,,,0.00,0,Wunderground v.1.15,2013-09-20 11:11:00,
2013-09-20 04:16:00,72.2,39.9,29.65,SW,224,0.0,0.0,31,0.00,,,0.00,0,Wunderground v.1.15,2013-09-20 11:16:00,
2013-09-20 04:21:00,71.9,40.4,29.65,SW,224,0.0,0.0,32,0.00,,,0.00,0,Wunderground v.1.15,2013-09-20 11:21:00,
2013-09-20 04:26:00,71.5,40.1,29.65,SW,224,0.0,0.0,32,0.00,,,0.00,0,Wunderground v.1.15,2013-09-20 11:26:00,
2013-09-20 04:31:00,71.4,40.0,29.65,SW,224,0.0,0.0,32,0.00,,,0.00,0,Wunderground v.1.15,2013-09-20 11:31:00,
2013-09-20 04:36:00,71.2,40.6,29.65,SW,224,0.0,0.0,33,0.00,,,0.00,0,Wunderground v.1.15,2013-09-20 11:36:00,
2013-09-20 04:41:00,70.9,40.3,29.65,SW,224,0.0,0.0,33,0.00,,,0.00,0,Wunderground v.1.15,2013-09-20 11:41:00,
2013-09-20 04:46:00,70.6,40.1,29.65,SW,224,0.0,0.0,33,0.00,,,0.00,0,Wunderground v.1.15,2013-09-20 11:46:00,
2013-09-20 04:51:00,70.3,40.6,29.66,SW,224,0.0,0.0,34,0.00,,,0.00,0,Wunderground v.1.15,2013-09-20 11:51:00,
2013-09-20 04:56:00,70.3,40.6,29.66,SW,224,0.0,1.0,34,0.00,,,0.00,0,Wunderground v.1.15,2013-09-20 11:56:00,
2013-09-20 05:01:00,70.2,41.3,29.66,SW,224,0.0,0.0,35,0.00,,,0.00,0,Wunderground v.1.15,2013-09-20 12:01:00,
2013-09-20 05:06:00,69.7,40.8,29.66,SW,224,0.0,0.0,35,0.00,,,0.00,0,Wunderground v.1.15,2013-09-20 12:06:00,
2013-09-20 05:11:00,69.6,40.7,29.66,SW,224,0.0,0.0,35,0.00,,,0.00,0,Wunderground v.1.15,2013-09-20 12:11:00,
2013-09-20 05:16:00,69.6,40.7,29.66,SW,224,0.0,1.0,35,0.00,,,0.00,0,Wunderground v.1.15,2013-09-20 12:16:00,
2013-09-20 05:21:00,69.6,40.7,29.66,SW,224,0.0,0.0,35,0.00,,,0.00,0,Wunderground v.1.15,2013-09-20 12:21:00,
2013-09-20 05:26:00,69.5,40.6,29.66,SW,224,0.0,0.0,35,0.00,,,0.00,0,Wunderground v.1.15,2013-09-20 12:26:00,
2013-09-20 05:31:00,69.3,41.2,29.66,SW,224,0.0,0.0,36,0.00,,,0.00,0,Wunderground v.1.15,2013-09-20 12:31:00,
2013-09-20 05:36:00,68.9,40.8,29.66,SW,224,0.0,1.0,36,0.00,,,0.00,0,Wunderground v.1.15,2013-09-20 12:36:00,
2013-09-20 05:41:00,68.9,40.8,29.66,SW,224,0.0,0.0,36,0.00,,,0.00,0,Wunderground v.1.15,2013-09-20 12:41:00,
2013-09-20 05:46:00,68.8,40.7,29.66,SW,224,0.0,0.0,36,0.00,,,0.00,0,Wunderground v.1.15,2013-09-20 12:46:00,
2013-09-20 05:51:00,68.5,41.2,29.66,SW,224,0.0,0.0,37,0.00,,,0.00,0,Wunderground v.1.15,2013-09-20 12:51:00,
2013-09-20 05:56:00,68.2,40.9,29.66,SW,224,0.0,0.0,37,0.00,,,0.00,0,Wunderground v.1.15,2013-09-20 12:56:00,
2013-09-20 06:01:00,68.2,40.9,29.66,SW,224,0.0,0.0,37,0.00,,,0.00,0,Wunderground v.1.15,2013-09-20 13:01:00,
2013-09-20 06:06:00,68.4,40.4,29.67,SW,224,0.0,1.0,36,0.00,,,0.00,0,Wunderground v.1.15,2013-09-20 13:06:00,
2013-09-20 06:12:00,68.7,40.7,29.67,SW,224,0.0,0.0,36,0.00,,,0.00,0,Wunderground v.1.15,2013-09-20 13:12:00,
2013-09-20 06:17:00,68.8,40.7,29.67,SW,224,0.0,0.0,36,0.00,,,0.00,7,Wunderground v.1.15,2013-09-20 13:17:00,
2013-09-20 06:22:00,68.8,40.7,29.67,SW,224,0.0,0.0,36,0.00,,,0.00,11,Wunderground v.1.15,2013-09-20 13:22:00,
2013-09-20 06:27:00,69.0,40.9,29.67,SW,224,0.0,0.0,36,0.00,,,0.00,11,Wunderground v.1.15,2013-09-20 13:27:00,
2013-09-20 06:32:00,69.4,41.3,29.67,SW,224,0.0,0.0,36,0.00,,,0.00,11,Wunderground v.1.15,2013-09-20 13:32:00,
2013-09-20 06:37:00,69.5,41.4,29.67,SW,224,0.0,0.0,36,0.00,,,0.00,14,Wunderground v.1.15,2013-09-20 13:37:00,
2013-09-20 06:42:00,69.5,41.4,29.67,SW,224,0.0,0.0,36,0.00,,,0.00,19,Wunderground v.1.15,2013-09-20 13:42:00,
2013-09-20 06:47:00,69.5,42.1,29.67,SW,224,0.0,1.0,37,0.00,,,0.00,40,Wunderground v.1.15,2013-09-20 13:47:00,
2013-09-20 06:52:00,69.8,42.3,29.68,SW,224,0.0,0.0,37,0.00,,,0.00,30,Wunderground v.1.15,2013-09-20 13:52:00,
2013-09-20 06:57:00,70.2,42.7,29.68,SW,224,0.0,0.0,37,0.00,,,0.00,77,Wunderground v.1.15,2013-09-20 13:57:00,
2013-09-20 07:02:00,70.8,43.9,29.68,SW,219,0.0,1.0,38,0.00,,,0.00,144,Wunderground v.1.15,2013-09-20 14:02:00,
2013-09-20 07:07:00,72.9,46.5,29.68,ESE,102,0.0,3.0,39,0.00,,,0.00,167,Wunderground v.1.15,2013-09-20 14:07:00,
2013-09-20 07:12:00,74.6,47.3,29.68,East,100,0.0,1.0,38,0.00,,,0.00,192,Wunderground v.1.15,2013-09-20 14:12:00,
2013-09-20 07:17:00,76.2,48.0,29.68,East,94,6.0,6.0,37,0.00,,,0.00,195,Wunderground v.1.15,2013-09-20 14:17:00,
2013-09-20 07:22:00,77.0,48.0,29.68,East,96,0.0,2.0,36,0.00,,,0.00,246,Wunderground v.1.15,2013-09-20 14:22:00,
2013-09-20 07:27:00,77.6,48.5,29.68,ESE,121,2.0,4.0,36,0.00,,,0.00,269,Wunderground v.1.15,2013-09-20 14:27:00,
2013-09-20 07:32:00,77.7,47.9,29.68,East,98,0.0,4.0,35,0.00,,,0.00,49,Wunderground v.1.15,2013-09-20 14:32:00,
2013-09-20 07:37:00,77.3,48.3,29.68,East,92,0.0,4.0,36,0.00,,,0.00,309,Wunderground v.1.15,2013-09-20 14:37:00,
2013-09-20 07:42:00,77.9,48.8,29.68,East,80,0.0,5.0,36,0.00,,,0.00,269,Wunderground v.1.15,2013-09-20 14:42:00,
2013-09-20 07:47:00,78.0,48.9,29.68,East,86,2.0,5.0,36,0.00,,,0.00,179,Wunderground v.1.15,2013-09-20 14:47:00,
2013-09-20 07:52:00,78.0,48.9,29.68,ESE,111,2.0,3.0,36,0.00,,,0.00,123,Wunderground v.1.15,2013-09-20 14:52:00,
2013-09-20 07:57:00,78.1,49.0,29.68,ESE,111,3.0,3.0,36,0.00,,,0.00,141,Wunderground v.1.15,2013-09-20 14:57:00,
2013-09-20 08:02:00,78.7,49.5,29.68,East,87,1.0,3.0,36,0.00,,,0.00,422,Wunderground v.1.15,2013-09-20 15:02:00,
2013-09-20 08:07:00,79.6,51.0,29.68,ESE,107,1.0,5.0,37,0.00,,,0.00,452,Wunderground v.1.15,2013-09-20 15:07:00,
2013-09-20 08:12:00,80.5,53.3,29.68,East,83,2.0,6.0,39,0.00,,,0.00,464,Wunderground v.1.15,2013-09-20 15:12:00,
2013-09-20 08:17:00,80.8,53.5,29.68,East,98,1.0,6.0,39,0.00,,,0.00,471,Wunderground v.1.15,2013-09-20 15:17:00,
2013-09-20 08:22:00,81.3,54.0,29.68,ESE,123,4.0,5.0,39,0.00,,,0.00,480,Wunderground v.1.15,2013-09-20 15:22:00,
2013-09-20 08:27:00,81.5,55.5,29.68,East,92,1.0,9.0,41,0.00,,,0.00,492,Wunderground v.1.15,2013-09-20 15:27:00,
2013-09-20 08:32:00,81.4,56.1,29.68,SE,124,3.0,7.0,42,0.00,,,0.00,501,Wunderground v.1.15,2013-09-20 15:32:00,
2013-09-20 08:37:00,81.4,56.1,29.68,East,87,1.0,7.0,42,0.00,,,0.00,508,Wunderground v.1.15,2013-09-20 15:37:00,
2013-09-20 08:42:00,81.4,55.4,29.69,SSE,154,2.0,8.0,41,0.00,,,0.00,522,Wunderground v.1.15,2013-09-20 15:42:00,
2013-09-20 08:47:00,81.9,55.9,29.69,NE,56,4.0,8.0,41,0.00,,,0.00,536,Wunderground v.1.15,2013-09-20 15:47:00,
2013-09-20 08:52:00,81.5,55.5,29.69,SE,127,1.0,5.0,41,0.00,,,0.00,554,Wunderground v.1.15,2013-09-20 15:52:00,
2013-09-20 08:57:00,81.4,55.4,29.69,ESE,110,1.0,7.0,41,0.00,,,0.00,573,Wunderground v.1.15,2013-09-20 15:57:00,
2013-09-20 09:02:00,81.1,55.8,29.69,East,79,3.0,4.0,42,0.00,,,0.00,592,Wunderground v.1.15,2013-09-20 16:02:00,
2013-09-20 09:07:00,81.7,56.4,29.69,ESE,113,2.0,7.0,42,0.00,,,0.00,603,Wunderground v.1.15,2013-09-20 16:07:00,
2013-09-20 09:12:00,82.9,56.8,29.69,ESE,103,3.0,4.0,41,0.00,,,0.00,610,Wunderground v.1.15,2013-09-20 16:12:00,
2013-09-20 09:17:00,83.4,56.5,29.69,East,80,2.0,9.0,40,0.00,,,0.00,633,Wunderground v.1.15,2013-09-20 16:17:00,
2013-09-20 09:22:00,83.0,56.2,29.69,ENE,74,4.0,8.0,40,0.00,,,0.00,659,Wunderground v.1.15,2013-09-20 16:22:00,
2013-09-20 09:27:00,83.3,56.5,29.69,ESE,107,3.0,8.0,40,0.00,,,0.00,675,Wunderground v.1.15,2013-09-20 16:27:00,
2013-09-20 09:32:00,83.4,56.5,29.69,ESE,123,1.0,5.0,40,0.00,,,0.00,689,Wunderground v.1.15,2013-09-20 16:32:00,
2013-09-20 09:37:00,83.5,55.9,29.69,ESE,107,2.0,8.0,39,0.00,,,0.00,701,Wunderground v.1.15,2013-09-20 16:37:00,
2013-09-20 09:42:00,83.5,55.9,29.69,SE,130,1.0,8.0,39,0.00,,,0.00,707,Wunderground v.1.15,2013-09-20 16:42:00,
2013-09-20 09:47:00,83.7,55.4,29.70,East,92,1.0,8.0,38,0.00,,,0.00,722,Wunderground v.1.15,2013-09-20 16:47:00,
2013-09-20 09:52:00,83.6,56.0,29.69,SE,140,6.0,9.0,39,0.00,,,0.00,729,Wunderground v.1.15,2013-09-20 16:52:00,
2013-09-20 09:57:00,83.7,56.8,29.69,East,98,6.0,9.0,40,0.00,,,0.00,731,Wunderground v.1.15,2013-09-20 16:57:00,
2013-09-20 10:03:00,83.9,56.3,29.69,ESE,104,2.0,5.0,39,0.00,,,0.00,747,Wunderground v.1.15,2013-09-20 17:03:00,
2013-09-20 10:08:00,84.4,56.7,29.69,ESE,106,0.0,6.0,39,0.00,,,0.00,752,Wunderground v.1.15,2013-09-20 17:08:00,
2013-09-20 10:13:00,84.6,56.2,29.69,SE,128,1.0,7.0,38,0.00,,,0.00,768,Wunderground v.1.15,2013-09-20 17:13:00,
2013-09-20 10:18:00,84.9,56.5,29.69,ENE,78,1.0,9.0,38,0.00,,,0.00,773,Wunderground v.1.15,2013-09-20 17:18:00,
2013-09-20 10:23:00,85.6,56.3,29.69,East,82,0.0,5.0,37,0.00,,,0.00,789,Wunderground v.1.15,2013-09-20 17:23:00,
2013-09-20 10:28:00,85.4,56.2,29.69,SE,136,5.0,8.0,37,0.00,,,0.00,819,Wunderground v.1.15,2013-09-20 17:28:00,
2013-09-20 10:33:00,86.0,56.7,29.69,ESE,123,5.0,5.0,37,0.00,,,0.00,889,Wunderground v.1.15,2013-09-20 17:33:00,
2013-09-20 10:38:00,86.5,56.4,29.69,East,83,2.0,9.0,36,0.00,,,0.00,893,Wunderground v.1.15,2013-09-20 17:38:00,
2013-09-20 10:43:00,86.0,55.9,29.69,East,90,6.0,6.0,36,0.00,,,0.00,893,Wunderground v.1.15,2013-09-20 17:43:00,
2013-09-20 10:48:00,86.2,55.3,29.69,East,84,0.0,8.0,35,0.00,,,0.00,939,Wunderground v.1.15,2013-09-20 17:48:00,
2013-09-20 10:53:00,86.9,56.0,29.69,East,91,1.0,6.0,35,0.00,,,0.00,967,Wunderground v.1.15,2013-09-20 17:53:00,
2013-09-20 10:58:00,87.6,56.6,29.68,East,88,0.0,6.0,35,0.00,,,0.00,930,Wunderground v.1.15,2013-09-20 17:58:00,
2013-09-20 11:03:00,87.9,56.0,29.68,East,98,0.0,3.0,34,0.00,,,0.00,933,Wunderground v.1.15,2013-09-20 18:03:00,
2013-09-20 11:08:00,87.9,55.2,29.68,ESE,113,3.0,7.0,33,0.00,,,0.00,241,Wunderground v.1.15,2013-09-20 18:08:00,
2013-09-20 11:13:00,86.9,55.2,29.68,ESE,104,0.0,2.0,34,0.00,,,0.00,336,Wunderground v.1.15,2013-09-20 18:13:00,
2013-09-20 11:18:00,87.4,48.3,29.68,NW,317,1.0,4.0,26,0.00,,,0.00,1092,Wunderground v.1.15,2013-09-20 18:18:00,
2013-09-20 11:23:00,87.5,47.3,29.68,WNW,292,0.0,3.0,25,0.00,,,0.00,288,Wunderground v.1.15,2013-09-20 18:23:00,
2013-09-20 11:28:00,86.1,47.2,29.68,WSW,237,0.0,3.0,26,0.00,,,0.00,297,Wunderground v.1.15,2013-09-20 18:28:00,
2013-09-20 11:33:00,85.2,47.4,29.68,West,271,1.0,2.0,27,0.00,,,0.00,220,Wunderground v.1.15,2013-09-20 18:33:00,
2013-09-20 11:38:00,85.2,48.4,29.68,West,271,1.0,2.0,28,0.00,,,0.00,1027,Wunderground v.1.15,2013-09-20 18:38:00,
2013-09-20 11:43:00,86.3,47.4,29.68,West,274,1.0,2.0,26,0.00,,,0.00,207,Wunderground v.1.15,2013-09-20 18:43:00,
2013-09-20 11:49:00,85.1,47.4,29.68,West,277,0.0,3.0,27,0.00,,,0.00,151,Wunderground v.1.15,2013-09-20 18:49:00,
2013-09-20 11:54:00,84.5,46.8,29.67,West,275,0.0,1.0,27,0.00,,,0.00,979,Wunderground v.1.15,2013-09-20 18:54:00,
2013-09-20 11:59:00,85.6,46.8,29.67,West,269,0.0,4.0,26,0.00,,,0.00,193,Wunderground v.1.15,2013-09-20 18:59:00,
2013-09-20 12:04:00,85.0,49.2,29.67,South,182,0.0,2.0,29,0.00,,,0.00,200,Wunderground v.1.15,2013-09-20 19:04:00,
2013-09-20 12:09:00,84.4,49.6,29.67,SSE,158,2.0,3.0,30,0.00,,,0.00,135,Wunderground v.1.15,2013-09-20 19:09:00,
2013-09-20 12:14:00,83.9,48.2,29.67,WSW,254,0.0,2.0,29,0.00,,,0.00,278,Wunderground v.1.15,2013-09-20 19:14:00,
2013-09-20 12:19:00,84.1,51.1,29.68,North,9,0.0,7.0,32,0.00,,,0.00,195,Wunderground v.1.15,2013-09-20 19:19:00,
2013-09-20 12:24:00,82.4,53.5,29.67,North,360,2.0,7.0,37,0.00,,,0.00,202,Wunderground v.1.15,2013-09-20 19:24:00,
2013-09-20 12:29:00,80.3,56.4,29.67,NNW,330,0.0,7.0,44,0.00,,,0.00,301,Wunderground v.1.15,2013-09-20 19:29:00,
2013-09-20 12:34:00,79.9,54.8,29.67,NNW,346,2.0,5.0,42,0.00,,,0.00,661,Wunderground v.1.15,2013-09-20 19:34:00,
2013-09-20 12:39:00,80.5,54.0,29.67,North,355,0.0,6.0,40,0.00,,,0.00,243,Wunderground v.1.15,2013-09-20 19:39:00,
2013-09-20 12:44:00,80.2,55.7,29.67,North,355,0.0,3.0,43,0.00,,,0.00,213,Wunderground v.1.15,2013-09-20 19:44:00,
2013-09-20 12:49:00,80.0,56.1,29.67,North,350,0.0,3.0,44,0.00,,,0.00,229,Wunderground v.1.15,2013-09-20 19:49:00,
2013-09-20 12:54:00,80.2,54.4,29.67,North,350,0.0,2.0,41,0.00,,,0.00,425,Wunderground v.1.15,2013-09-20 19:54:00,
2013-09-20 12:59:00,82.3,54.9,29.67,North,351,0.0,4.0,39,0.00,,,0.00,1078,Wunderground v.1.15,2013-09-20 19:59:00,
2013-09-20 13:04:00,84.5,52.2,29.67,North,355,0.0,5.0,33,0.00,,,0.00,998,Wunderground v.1.15,2013-09-20 20:04:00,
2013-09-20 13:09:00,84.1,55.0,29.67,North,5,1.0,6.0,37,0.00,,,0.00,979,Wunderground v.1.15,2013-09-20 20:09:00,
2013-09-20 13:14:00,83.4,53.6,29.67,North,5,0.0,4.0,36,0.00,,,0.00,970,Wunderground v.1.15,2013-09-20 20:14:00,
2013-09-20 13:19:00,85.4,53.8,29.67,North,5,1.0,4.0,34,0.00,,,0.00,921,Wunderground v.1.15,2013-09-20 20:19:00,
2013-09-20 13:24:00,85.9,52.6,29.66,NNE,28,0.0,5.0,32,0.00,,,0.00,378,Wunderground v.1.15,2013-09-20 20:24:00,
2013-09-20 13:29:00,86.7,54.2,29.66,East,97,2.0,5.0,33,0.00,,,0.00,378,Wunderground v.1.15,2013-09-20 20:29:00,
2013-09-20 13:34:00,86.5,54.8,29.66,ESE,105,2.0,7.0,34,0.00,,,0.00,90,Wunderground v.1.15,2013-09-20 20:34:00,
2013-09-20 13:39:00,84.9,52.6,29.66,SE,127,3.0,7.0,33,0.00,,,0.00,155,Wunderground v.1.15,2013-09-20 20:39:00,
2013-09-20 13:44:00,85.1,51.1,29.65,East,88,3.0,7.0,31,0.00,,,0.00,76,Wunderground v.1.15,2013-09-20 20:44:00,
2013-09-20 13:49:00,85.2,52.0,29.65,East,94,0.0,7.0,32,0.00,,,0.00,79,Wunderground v.1.15,2013-09-20 20:49:00,
2013-09-20 13:54:00,85.2,53.7,29.65,SE,127,1.0,6.0,34,0.00,,,0.00,84,Wunderground v.1.15,2013-09-20 20:54:00,
2013-09-20 13:59:00,85.9,53.5,29.65,East,89,3.0,8.0,33,0.00,,,0.00,86,Wunderground v.1.15,2013-09-20 20:59:00,
2013-09-20 14:04:00,86.1,52.8,29.65,ESE,104,5.0,7.0,32,0.00,,,0.00,128,Wunderground v.1.15,2013-09-20 21:04:00,
2013-09-20 14:09:00,86.8,53.4,29.65,ESE,118,2.0,7.0,32,0.00,,,0.00,176,Wunderground v.1.15,2013-09-20 21:09:00,
2013-09-20 14:14:00,87.6,52.3,29.65,South,175,3.0,5.0,30,0.00,,,0.00,469,Wunderground v.1.15,2013-09-20 21:14:00,
2013-09-20 14:19:00,87.7,52.4,29.65,East,101,3.0,7.0,30,0.00,,,0.00,348,Wunderground v.1.15,2013-09-20 21:19:00,
2013-09-20 14:24:00,87.5,53.1,29.65,East,98,3.0,6.0,31,0.00,,,0.00,206,Wunderground v.1.15,2013-09-20 21:24:00,
2013-09-20 14:29:00,88.0,53.6,29.65,SE,126,3.0,9.0,31,0.00,,,0.00,223,Wunderground v.1.15,2013-09-20 21:29:00,
2013-09-20 14:34:00,87.6,53.2,29.65,ESE,121,0.0,7.0,31,0.00,,,0.00,276,Wunderground v.1.15,2013-09-20 21:34:00,
2013-09-20 14:39:00,87.4,54.8,29.65,ENE,72,1.0,8.0,33,0.00,,,0.00,211,Wunderground v.1.15,2013-09-20 21:39:00,
2013-09-20 14:44:00,87.4,53.9,29.65,ESE,116,3.0,8.0,32,0.00,,,0.00,137,Wunderground v.1.15,2013-09-20 21:44:00,
2013-09-20 14:49:00,86.6,54.1,29.65,ESE,112,4.0,10.0,33,0.00,,,0.00,243,Wunderground v.1.15,2013-09-20 21:49:00,
2013-09-20 14:54:00,86.4,51.3,29.65,ESE,115,1.0,11.0,30,0.00,,,0.00,320,Wunderground v.1.15,2013-09-20 21:54:00,
2013-09-20 14:59:00,86.3,52.1,29.65,ESE,102,1.0,11.0,31,0.00,,,0.00,179,Wunderground v.1.15,2013-09-20 21:59:00,
2013-09-20 15:04:00,86.1,51.9,29.65,SE,131,6.0,8.0,31,0.00,,,0.00,151,Wunderground v.1.15,2013-09-20 22:04:00,
2013-09-20 15:09:00,86.3,53.0,29.64,SE,130,5.0,9.0,32,0.00,,,0.00,218,Wunderground v.1.15,2013-09-20 22:09:00,
2013-09-20 15:14:00,86.8,53.4,29.65,South,172,3.0,8.0,32,0.00,,,0.00,200,Wunderground v.1.15,2013-09-20 22:14:00,
2013-09-20 15:19:00,86.2,55.3,29.64,East,84,3.0,8.0,35,0.00,,,0.00,183,Wunderground v.1.15,2013-09-20 22:19:00,
2013-09-20 15:24:00,85.7,54.1,29.64,East,101,2.0,8.0,34,0.00,,,0.00,345,Wunderground v.1.15,2013-09-20 22:24:00,
2013-09-20 15:29:00,85.2,53.7,29.64,ESE,112,4.0,10.0,34,0.00,,,0.00,251,Wunderground v.1.15,2013-09-20 22:29:00,
2013-09-20 15:34:00,85.2,53.7,29.64,South,170,1.0,10.0,34,0.00,,,0.00,51,Wunderground v.1.15,2013-09-20 22:34:00,
2013-09-20 15:39:00,84.5,53.0,29.64,ESE,117,2.0,10.0,34,0.00,,,0.00,74,Wunderground v.1.15,2013-09-20 22:39:00,
2013-09-20 15:44:00,83.7,53.1,29.64,ESE,121,0.0,5.0,35,0.00,,,0.00,32,Wunderground v.1.15,2013-09-20 22:44:00,
2013-09-20 15:49:00,83.2,53.5,29.64,East,101,5.0,5.0,36,0.00,,,0.00,32,Wunderground v.1.15,2013-09-20 22:49:00,
2013-09-20 15:54:00,82.7,53.0,29.64,ESE,105,0.0,5.0,36,0.00,,,0.00,54,Wunderground v.1.15,2013-09-20 22:54:00,
2013-09-20 15:59:00,82.8,53.1,29.64,ESE,113,1.0,7.0,36,0.00,,,0.00,60,Wunderground v.1.15,2013-09-20 22:59:00,
2013-09-20 16:04:00,83.5,53.0,29.64,ESE,108,0.0,4.0,35,0.00,,,0.00,163,Wunderground v.1.15,2013-09-20 23:04:00,
2013-09-20 16:09:00,83.9,52.5,29.63,East,101,0.0,4.0,34,0.00,,,0.00,51,Wunderground v.1.15,2013-09-20 23:09:00,
2013-09-20 16:15:00,84.3,52.1,29.64,ESE,113,0.0,4.0,33,0.00,,,0.00,118,Wunderground v.1.15,2013-09-20 23:15:00,
2013-09-20 16:20:00,84.6,52.3,29.64,ESE,123,0.0,1.0,33,0.00,,,0.00,62,Wunderground v.1.15,2013-09-20 23:20:00,
2013-09-20 16:25:00,84.6,52.3,29.63,ESE,109,2.0,5.0,33,0.00,,,0.00,33,Wunderground v.1.15,2013-09-20 23:25:00,
2013-09-20 16:30:00,84.3,52.1,29.64,East,100,1.0,1.0,33,0.00,,,0.00,53,Wunderground v.1.15,2013-09-20 23:30:00,
2013-09-20 16:35:00,84.0,51.8,29.63,East,79,0.0,2.0,33,0.00,,,0.00,37,Wunderground v.1.15,2013-09-20 23:35:00,
2013-09-20 16:40:00,83.4,51.3,29.63,SE,126,1.0,1.0,33,0.00,,,0.00,44,Wunderground v.1.15,2013-09-20 23:40:00,
2013-09-20 16:45:00,82.9,50.8,29.64,ESE,115,0.0,2.0,33,0.00,,,0.00,32,Wunderground v.1.15,2013-09-20 23:45:00,
2013-09-20 16:50:00,82.6,49.7,29.63,ESE,115,0.0,0.0,32,0.00,,,0.00,26,Wunderground v.1.15,2013-09-20 23:50:00,
2013-09-20 16:55:00,82.5,49.7,29.63,ESE,114,1.0,1.0,32,0.00,,,0.00,76,Wunderground v.1.15,2013-09-20 23:55:00,
2013-09-20 17:00:00,82.5,49.7,29.63,ESE,113,1.0,1.0,32,0.00,,,0.00,46,Wunderground v.1.15,2013-09-21 00:00:00,
2013-09-20 17:05:00,82.6,49.7,29.63,ESE,113,0.0,2.0,32,0.00,,,0.00,39,Wunderground v.1.15,2013-09-21 00:05:00,
2013-09-20 17:10:00,82.8,49.9,29.63,ESE,113,1.0,1.0,32,0.00,,,0.00,32,Wunderground v.1.15,2013-09-21 00:10:00,
2013-09-20 17:15:00,82.8,49.1,29.63,East,80,6.0,6.0,31,0.00,,,0.00,35,Wunderground v.1.15,2013-09-21 00:15:00,
2013-09-20 17:20:00,82.5,49.7,29.63,ESE,109,0.0,1.0,32,0.00,,,0.00,28,Wunderground v.1.15,2013-09-21 00:20:00,
2013-09-20 17:25:00,82.3,48.6,29.63,ESE,118,0.0,5.0,31,0.00,,,0.00,23,Wunderground v.1.15,2013-09-21 00:25:00,
2013-09-20 17:30:00,81.8,49.1,29.64,ESE,110,0.0,1.0,32,0.00,,,0.00,23,Wunderground v.1.15,2013-09-21 00:30:00,
2013-09-20 17:35:00,81.3,48.6,29.64,ESE,116,0.0,3.0,32,0.00,,,0.00,28,Wunderground v.1.15,2013-09-21 00:35:00,
2013-09-20 17:40:00,81.0,49.2,29.64,ESE,116,2.0,3.0,33,0.00,,,0.00,30,Wunderground v.1.15,2013-09-21 00:40:00,
2013-09-20 17:45:00,80.9,49.1,29.64,ESE,117,1.0,3.0,33,0.00,,,0.00,23,Wunderground v.1.15,2013-09-21 00:45:00,
2013-09-20 17:50:00,80.7,48.1,29.64,ESE,107,0.0,0.0,32,0.00,,,0.00,18,Wunderground v.1.15,2013-09-21 00:50:00,
2013-09-20 17:55:00,80.5,47.9,29.64,ESE,107,0.0,1.0,32,0.00,,,0.00,12,Wunderground v.1.15,2013-09-21 00:55:00,
2013-09-20 18:00:00,80.2,47.7,29.64,East,96,0.0,1.0,32,0.00,,,0.00,11,Wunderground v.1.15,2013-09-21 01:00:00,
2013-09-20 18:05:00,79.9,48.2,29.64,East,96,0.0,1.0,33,0.00,,,0.00,9,Wunderground v.1.15,2013-09-21 01:05:00,
2013-09-20 18:10:00,79.5,47.9,29.64,East,96,0.0,0.0,33,0.00,,,0.00,7,Wunderground v.1.15,2013-09-21 01:10:00,
2013-09-20 18:15:00,79.3,48.5,29.65,East,96,0.0,1.0,34,0.00,,,0.00,5,Wunderground v.1.15,2013-09-21 01:15:00,
2013-09-20 18:20:00,78.9,48.1,29.65,East,96,0.0,0.0,34,0.00,,,0.00,0,Wunderground v.1.15,2013-09-21 01:20:00,
2013-09-20 18:25:00,78.5,47.8,29.65,East,96,0.0,1.0,34,0.00,,,0.00,0,Wunderground v.1.15,2013-09-21 01:25:00,
2013-09-20 18:30:00,78.0,48.1,29.65,East,96,0.0,0.0,35,0.00,,,0.00,0,Wunderground v.1.15,2013-09-21 01:30:00,
2013-09-20 18:35:00,77.8,47.9,29.65,East,96,0.0,0.0,35,0.00,,,0.00,0,Wunderground v.1.15,2013-09-21 01:35:00,
2013-09-20 18:40:00,77.7,47.9,29.66,East,96,0.0,1.0,35,0.00,,,0.00,0,Wunderground v.1.15,2013-09-21 01:40:00,
2013-09-20 18:46:00,78.0,48.1,29.66,East,98,0.0,1.0,35,0.00,,,0.00,0,Wunderground v.1.15,2013-09-21 01:46:00,
2013-09-20 18:51:00,78.1,49.7,29.66,East,98,1.0,1.0,37,0.00,,,0.00,0,Wunderground v.1.15,2013-09-21 01:51:00,
2013-09-20 18:56:00,78.3,49.9,29.66,East,98,0.0,2.0,37,0.00,,,0.00,0,Wunderground v.1.15,2013-09-21 01:56:00,
2013-09-20 19:01:00,78.2,49.8,29.66,East,98,0.0,0.0,37,0.00,,,0.00,0,Wunderground v.1.15,2013-09-21 02:01:00,
2013-09-20 19:06:00,78.3,49.9,29.67,ESE,103,0.0,2.0,37,0.00,,,0.00,0,Wunderground v.1.15,2013-09-21 02:06:00,
2013-09-20 19:11:00,78.2,50.5,29.67,ESE,103,0.0,1.0,38,0.00,,,0.00,0,Wunderground v.1.15,2013-09-21 02:11:00,
2013-09-20 19:16:00,78.1,51.1,29.67,SE,134,0.0,3.0,39,0.00,,,0.00,0,Wunderground v.1.15,2013-09-21 02:16:00,
2013-09-20 19:21:00,77.9,51.6,29.67,SE,131,0.0,0.0,40,0.00,,,0.00,0,Wunderground v.1.15,2013-09-21 02:21:00,
2013-09-20 19:26:00,77.8,52.2,29.68,SE,134,0.0,2.0,41,0.00,,,0.00,0,Wunderground v.1.15,2013-09-21 02:26:00,
2013-09-20 19:31:00,77.7,52.8,29.68,SE,134,0.0,0.0,42,0.00,,,0.00,0,Wunderground v.1.15,2013-09-21 02:31:00,
2013-09-20 19:36:00,77.5,52.6,29.68,SE,134,0.0,1.0,42,0.00,,,0.00,0,Wunderground v.1.15,2013-09-21 02:36:00,
2013-09-20 19:41:00,77.3,53.1,29.68,SE,134,0.0,0.0,43,0.00,,,0.00,0,Wunderground v.1.15,2013-09-21 02:41:00,
2013-09-20 19:46:00,77.0,52.8,29.68,SE,134,0.0,3.0,43,0.00,,,0.00,0,Wunderground v.1.15,2013-09-21 02:46:00,
2013-09-20 19:51:00,76.9,52.7,29.68,SE,134,0.0,2.0,43,0.00,,,0.00,0,Wunderground v.1.15,2013-09-21 02:51:00,
2013-09-20 19:56:00,77.2,52.3,29.69,SE,134,1.0,2.0,42,0.00,,,0.00,0,Wunderground v.1.15,2013-09-21 02:56:00,
2013-09-20 20:01:00,77.4,52.5,29.69,SE,134,0.0,1.0,42,0.00,,,0.00,0,Wunderground v.1.15,2013-09-21 03:01:00,
2013-09-20 20:06:00,77.4,52.5,29.69,SE,134,0.0,1.0,42,0.00,,,0.00,0,Wunderground v.1.15,2013-09-21 03:06:00,
2013-09-20 20:11:00,77.1,52.2,29.69,SE,134,1.0,1.0,42,0.00,,,0.00,0,Wunderground v.1.15,2013-09-21 03:11:00,
2013-09-20 20:16:00,76.9,52.1,29.69,SE,134,0.0,2.0,42,0.00,,,0.00,0,Wunderground v.1.15,2013-09-21 03:16:00,
2013-09-20 20:21:00,76.7,51.9,29.69,SE,134,1.0,1.0,42,0.00,,,0.00,0,Wunderground v.1.15,2013-09-21 03:21:00,
2013-09-20 20:26:00,76.5,51.7,29.70,SE,134,0.0,1.0,42,0.00,,,0.00,0,Wunderground v.1.15,2013-09-21 03:26:00,
2013-09-20 20:31:00,76.3,51.5,29.70,SE,134,0.0,0.0,42,0.00,,,0.00,0,Wunderground v.1.15,2013-09-21 03:31:00,
2013-09-20 20:36:00,76.1,51.3,29.69,SE,134,0.0,0.0,42,0.00,,,0.00,0,Wunderground v.1.15,2013-09-21 03:36:00,
2013-09-20 20:41:00,75.9,51.2,29.70,SE,134,0.0,0.0,42,0.00,,,0.00,0,Wunderground v.1.15,2013-09-21 03:41:00,
2013-09-20 20:46:00,75.6,50.2,29.70,SE,134,0.0,1.0,41,0.00,,,0.00,0,Wunderground v.1.15,2013-09-21 03:46:00,
2013-09-20 20:51:00,75.1,52.9,29.70,ESE,119,0.0,4.0,46,0.00,,,0.00,0,Wunderground v.1.15,2013-09-21 03:51:00,
2013-09-20 20:56:00,74.5,53.5,29.70,SE,146,3.0,8.0,48,0.00,,,0.00,0,Wunderground v.1.15,2013-09-21 03:56:00,
2013-09-20 21:01:00,73.8,54.0,29.70,ESE,122,1.0,1.0,50,0.00,,,0.00,0,Wunderground v.1.15,2013-09-21 04:01:00,
2013-09-20 21:06:00,73.2,55.0,29.71,SE,128,6.0,7.0,53,0.00,,,0.00,0,Wunderground v.1.15,2013-09-21 04:06:00,
2013-09-20 21:11:00,72.6,55.0,29.71,ESE,119,3.0,4.0,54,0.00,,,0.00,0,Wunderground v.1.15,2013-09-21 04:11:00,
2013-09-20 21:16:00,72.4,54.8,29.71,ESE,118,4.0,6.0,54,0.00,,,0.00,0,Wunderground v.1.15,2013-09-21 04:16:00,
2013-09-20 21:21:00,72.4,54.8,29.71,ESE,105,3.0,4.0,54,0.00,,,0.00,0,Wunderground v.1.15,2013-09-21 04:21:00,
2013-09-20 21:26:00,72.2,54.6,29.71,ENE,63,0.0,7.0,54,0.00,,,0.00,0,Wunderground v.1.15,2013-09-21 04:26:00,
2013-09-20 21:31:00,71.9,54.9,29.71,ESE,113,1.0,5.0,55,0.00,,,0.00,0,Wunderground v.1.15,2013-09-21 04:31:00,
2013-09-20 21:36:00,71.8,54.3,29.71,East,88,1.0,7.0,54,0.00,,,0.00,0,Wunderground v.1.15,2013-09-21 04:36:00,
2013-09-20 21:41:00,71.9,53.8,29.71,SSW,212,9.0,9.0,53,0.00,,,0.00,0,Wunderground v.1.15,2013-09-21 04:41:00,
2013-09-20 21:46:00,71.9,53.8,29.72,SE,132,2.0,10.0,53,0.00,,,0.00,0,Wunderground v.1.15,2013-09-21 04:46:00,
2013-09-20 21:51:00,71.9,53.3,29.72,ESE,113,1.0,3.0,52,0.00,,,0.00,0,Wunderground v.1.15,2013-09-21 04:51:00,
2013-09-20 21:56:00,72.1,53.0,29.72,ESE,113,3.0,9.0,51,0.00,,,0.00,0,Wunderground v.1.15,2013-09-21 04:56:00,
2013-09-20 22:01:00,72.4,52.7,29.72,ESE,109,1.0,5.0,50,0.00,,,0.00,0,Wunderground v.1.15,2013-09-21 05:01:00,
2013-09-20 22:06:00,72.5,52.8,29.72,ESE,104,2.0,8.0,50,0.00,,,0.00,0,Wunderground v.1.15,2013-09-21 05:06:00,
2013-09-20 22:11:00,72.5,52.2,29.72,ESE,111,4.0,7.0,49,0.00,,,0.00,0,Wunderground v.1.15,2013-09-21 05:11:00,
2013-09-20 22:16:00,72.3,53.2,29.72,SE,134,6.0,9.0,51,0.00,,,0.00,0,Wunderground v.1.15,2013-09-21 05:16:00,
2013-09-20 22:21:00,72.1,53.0,29.72,ENE,67,8.0,8.0,51,0.00,,,0.00,0,Wunderground v.1.15,2013-09-21 05:21:00,
2013-09-20 22:26:00,72.0,52.9,29.72,ESE,122,2.0,9.0,51,0.00,,,0.00,0,Wunderground v.1.15,2013-09-21 05:26:00,
2013-09-20 22:31:00,71.9,53.3,29.72,ESE,115,3.0,4.0,52,0.00,,,0.00,0,Wunderground v.1.15,2013-09-21 05:31:00,
2013-09-20 22:36:00,71.8,53.2,29.72,SE,124,6.0,11.0,52,0.00,,,0.00,0,Wunderground v.1.15,2013-09-21 05:36:00,
2013-09-20 22:41:00,71.6,53.0,29.72,SE,124,1.0,5.0,52,0.00,,,0.00,0,Wunderground v.1.15,2013-09-21 05:41:00,
2013-09-20 22:46:00,71.7,53.1,29.72,ESE,115,3.0,7.0,52,0.00,,,0.00,0,Wunderground v.1.15,2013-09-21 05:46:00,
2013-09-20 22:51:00,71.7,53.1,29.72,SE,132,2.0,3.0,52,0.00,,,0.00,0,Wunderground v.1.15,2013-09-21 05:51:00,
2013-09-20 22:56:00,71.7,52.6,29.72,ESE,110,4.0,7.0,51,0.00,,,0.00,0,Wunderground v.1.15,2013-09-21 05:56:00,
2013-09-20 23:01:00,71.8,52.7,29.72,East,95,3.0,7.0,51,0.00,,,0.00,0,Wunderground v.1.15,2013-09-21 06:01:00,
2013-09-20 23:06:00,71.8,53.2,29.72,ESE,113,4.0,11.0,52,0.00,,,0.00,0,Wunderground v.1.15,2013-09-21 06:06:00,
2013-09-20 23:11:00,71.7,53.1,29.71,ESE,113,3.0,8.0,52,0.00,,,0.00,0,Wunderground v.1.15,2013-09-21 06:11:00,
2013-09-20 23:16:00,71.8,53.2,29.71,SE,143,0.0,8.0,52,0.00,,,0.00,0,Wunderground v.1.15,2013-09-21 06:16:00,
2013-09-20 23:21:00,71.8,53.2,29.71,SE,128,1.0,9.0,52,0.00,,,0.00,0,Wunderground v.1.15,2013-09-21 06:21:00,
2013-09-20 23:26:00,72.0,53.4,29.71,ESE,104,0.0,9.0,52,0.00,,,0.00,0,Wunderground v.1.15,2013-09-21 06:26:00,
2013-09-20 23:31:00,72.1,53.5,29.71,SSE,150,3.0,10.0,52,0.00,,,0.00,0,Wunderground v.1.15,2013-09-21 06:31:00,
2013-09-20 23:36:00,72.1,53.5,29.71,East,98,2.0,10.0,52,0.00,,,0.00,0,Wunderground v.1.15,2013-09-21 06:36:00,
2013-09-20 23:41:00,71.9,53.8,29.71,ESE,123,1.0,10.0,53,0.00,,,0.00,0,Wunderground v.1.15,2013-09-21 06:41:00,
2013-09-20 23:46:00,71.7,53.7,29.71,SSW,209,5.0,10.0,53,0.00,,,0.00,0,Wunderground v.1.15,2013-09-21 06:46:00,
2013-09-20 23:51:00,71.5,53.5,29.71,East,96,0.0,4.0,53,0.00,,,0.00,0,Wunderground v.1.15,2013-09-21 06:51:00,
2013-09-20 23:56:00,71.4,53.4,29.71,East,98,3.0,7.0,53,0.00,,,0.00,0,Wunderground v.1.15,2013-09-21 06:56:00,